Home   Weather   Rouyn-Noranda   Past weeks
Flag for Canada

Past Weather in Rouyn-Noranda, Quebec, Canada — Yesterday and Last 2 Weeks

Now
46 °F

Overcast.


Feels Like: 40 °F
Forecast: 51 / 46 °F
Wind: 14 mph from Southeast

Location: Rouyn Airport

Current Time: Oct 22, 2019 at 12:03:26 am

Latest Report: Oct 21, 2019 at 11:00 pm


Visibility: 15 mi

Pressure: 29.99 "Hg

Humidity: 82%

Dew Point: 41 °F

Location of Rouyn-NorandaLocation

Past Weather in Rouyn-Noranda — Graph

°F

Rouyn-Noranda Temperature Yesterday

Maximum temperature yesterday: 46 °F (at 11:33 am)
Minimum temperature yesterday: 37 °F (at 8:11 am)
Average temperature yesterday: 43 °F

High & Low Weather Summary for the Past Weeks

 TemperatureHumidityPressure
High70 °F (Oct 11, 4:00 pm)100% (Oct 7, 7:00 am)30.46 "Hg (Oct 7, 7:00 am)
Low25 °F (Oct 19, 6:00 am)21% (Oct 11, 4:00 pm)29.64 "Hg (Oct 17, 1:00 am)
Average43 °F83%30.00 "Hg
* Reported Oct 6 10:22 pm — Oct 21 10:00 pm, Rouyn-Noranda. Weather by CustomWeather, © 2019

Note: Actual official high and low records may vary slightly from our data, if they occured in-between our weather recording intervals... More about our weather records

Advertising

Rouyn-Noranda Weather History for the Previous 24 Hours

Scroll right to see more
 ConditionsComfort  
Time TempWeatherWind HumidityBarometerVisibility
10:00 pm
Mon, Oct 21
46 °FOvercast.12 mph82%30.02 "Hg15 mi
9:00 pm46 °FOvercast.13 mph82%30.05 "Hg15 mi
8:00 pm46 °FOvercast.17 mph82%30.06 "Hg15 mi
7:00 pm45 °FOvercast.8 mph87%30.11 "Hg15 mi
6:00 pm45 °FMore clouds than sun.6 mph93%30.15 "Hg15 mi
5:41 pm46 °FMore clouds than sun.7 mph87%30.15 "Hg15 mi
5:00 pm46 °FMostly cloudy.7 mph87%30.16 "Hg15 mi
4:00 pm45 °FMostly cloudy.8 mph93%30.16 "Hg15 mi
3:00 pm46 °FPartly sunny.8 mph87%30.17 "Hg15 mi
2:00 pm45 °FPartly sunny.9 mph93%30.19 "Hg15 mi
1:00 pm46 °FLow clouds.9 mph87%30.18 "Hg15 mi
12:00 pm46 °FLow clouds.10 mph93%30.19 "Hg15 mi
11:33 am46 °FLow clouds.10 mph93%30.18 "Hg12 mi
11:00 am45 °FPartly sunny.12 mph100%30.18 "Hg8 mi
10:31 am45 °FFog.6 mph100%30.21 "Hg6 mi
10:07 am43 °FFog.5 mph100%30.22 "Hg5 mi
9:00 am41 °FFog.6 mph100%30.20 "Hg5 mi
8:30 am39 °FFog.5 mph100%30.20 "Hg0 mi
8:11 am37 °FFog.5 mph100%30.20 "Hg0 mi
8:00 am39 °FFog.5 mph100%30.19 "Hg0 mi
7:43 am39 °FFog.2 mph100%30.18 "Hg0 mi
7:16 am39 °FFog.No wind100%30.16 "Hg0 mi
6:54 am41 °FFog.No wind100%30.16 "Hg1 mi
6:31 am41 °FFog.2 mph100%30.17 "Hg1 mi
6:09 am41 °FDrizzle. Fog.5 mph100%30.17 "Hg0 mi
5:00 am41 °FDrizzle. Fog.2 mph100%30.15 "Hg0 mi
4:22 am41 °FDrizzle. Fog.3 mph100%30.13 "Hg0 mi
4:00 am41 °FDrizzle. Fog.2 mph100%30.12 "Hg0 mi
3:00 am41 °FDrizzle. Fog.2 mph100%30.10 "Hg0 mi
2:08 am41 °FDrizzle. Fog.6 mph100%30.08 "Hg0 mi
2:00 am41 °FDrizzle. Fog.3 mph100%30.07 "Hg1 mi
1:49 am41 °FFog.6 mph100%30.07 "Hg2 mi
1:23 am39 °FPassing clouds.No wind100%30.06 "Hg15 mi
1:00 am43 °FPassing clouds.2 mph100%30.05 "Hg15 mi
12:38 am45 °FPassing clouds.5 mph100%30.05 "Hg15 mi
12:22 am45 °FPassing clouds.3 mph100%30.06 "Hg15 mi
12:00 am45 °FLow clouds.3 mph100%30.05 "Hg15 mi
Weather by CustomWeather, © 2019

See weather overview